Weather History for Rexburg, ID

Change the Weather History Date:

Sunday, November 28, 2010

  Actual Average Record
Temperature  
Mean Temperature 25 °F 25 °F  
Max Temperature 30 °F 33 °F 50 °F (1999)
Min Temperature 20 °F 16 °F 2 °F (2000)
Degree Days  
Heating Degree Days 40 40  
Month to date heating degree days 937 943  
Since 1 July heating degree days 1739 1930  
Cooling Degree Days 0 0  
Month to date cooling degree days 0 0  
Year to date cooling degree days 175 208  
Moisture  
Dew Point 23 °F    
Average Humidity 82    
Maximum Humidity 100    
Minimum Humidity 63    
Precipitation  
Precipitation 0.05 in 0.03 in 0.40 in (1988)
Month to date precipitation 2.15 0.99  
Year to date precipitation 11.98 11.98  
Sea Level Pressure  
Sea Level Pressure 29.64 in    
Wind  
Wind Speed 3 mph (NNE)    
Max Wind Speed 12 mph    
Max Gust Speed 17 mph    
Visibility 6 miles    
Events Snow    
T = Trace of Precipitation, MM = Missing Value Source: NWS Daily Summary

Daily Weather History Graph

Daily Weather History Graph

Search for Another Location

Airport:

Trip Planner

Search our weather history database for the weather conditions in past years. The results will help you decide how hot, cold, wet, or windy it might be!

Date:

Astronomy

Nov. 28, 2010 Rise Set
Actual Time 7:38 AM MST 4:52 PM MST
Civil Twilight 7:05 AM MST 5:24 PM MST
Nautical Twilight 6:30 AM MST 5:59 PM MST
Astronomical Twilight 5:55 AM MST 6:34 PM MST
Moon No Moon Rise 12:39 PM MST (11/28)
Length of Visible Light 10h 18m
Length of Day
9h 14m
Waning Gibbous, 51% of the Moon is Illuminated
Nov 28
Waning Gibbous
Nov 28
Last Quarter
Dec 5
New
Dec 13
First Quarter
Dec 21
Full

Hourly Weather History & Observations

Time (MST) Temp. Windchill Dew Point Humidity Pressure Visibility Wind Dir Wind Speed Gust Speed Precip Events Conditions
12:20 AM 26.6 °F 22.6 °F 24.8 °F 93% 29.58 in 10.0 mi East 3.5 mph - 0.00 in   Overcast
12:51 AM 26.6 °F 22.6 °F 24.8 °F 93% 29.57 in 10.0 mi ENE 3.5 mph - 0.00 in   Overcast
12:53 AM 27.0 °F 23.0 °F 25.0 °F 92% 29.65 in 10.0 mi East 3.5 mph - 0.00 in   Overcast
1:53 AM 26.1 °F - 25.0 °F 96% 29.64 in 6.0 mi Calm Calm - N/A   Overcast
2:20 AM 26.6 °F - 24.8 °F 93% 29.55 in 4.0 mi Calm Calm - 0.00 in Snow Light Snow
2:43 AM 26.6 °F 22.6 °F 24.8 °F 93% 29.54 in 3.0 mi NE 3.5 mph - 0.00 in Snow Light Snow
2:53 AM 26.1 °F - 25.0 °F 96% 29.62 in 2.5 mi Calm Calm - 0.00 in Snow Light Snow
3:17 AM 26.6 °F 22.6 °F 24.8 °F 93% 29.54 in 2.5 mi NNE 3.5 mph - 0.01 in Snow Light Snow
3:30 AM 26.6 °F - 24.8 °F 93% 29.54 in 1.8 mi Calm Calm - 0.01 in Snow Light Snow
3:53 AM 26.1 °F - 25.0 °F 96% 29.62 in 1.8 mi Calm Calm - 0.01 in Snow Light Snow
4:13 AM 26.6 °F - 24.8 °F 93% 29.53 in 2.0 mi Calm Calm - 0.01 in Snow Light Snow
4:23 AM 26.6 °F 22.6 °F 24.8 °F 93% 29.53 in 1.8 mi NNE 3.5 mph - 0.01 in Snow Light Snow
4:38 AM 26.6 °F - 24.8 °F 93% 29.52 in 2.0 mi Calm Calm - 0.01 in Snow Light Snow
4:53 AM 26.1 °F 20.5 °F 25.0 °F 96% 29.61 in 2.0 mi ENE 4.6 mph - 0.01 in Snow Light Snow
5:17 AM 26.6 °F - 24.8 °F 93% 29.52 in 2.5 mi Calm Calm - 0.01 in Snow Light Snow
5:43 AM 26.6 °F - 24.8 °F 93% 29.52 in 2.5 mi Calm Calm - 0.01 in Snow Light Snow
5:53 AM 26.1 °F - 25.0 °F 96% 29.60 in 2.0 mi Calm Calm - 0.01 in Snow Light Snow
5:56 AM 26.6 °F - 24.8 °F 93% 29.51 in 1.8 mi Calm Calm - 0.00 in Snow Light Snow
6:11 AM 26.6 °F - 24.8 °F 93% 29.51 in 1.2 mi Calm Calm - 0.00 in Snow Light Snow
6:40 AM 26.6 °F - 24.8 °F 93% 29.52 in 2.0 mi Calm Calm - 0.01 in Snow Light Snow
7:45 AM 24.8 °F - 24.8 °F 100% 29.52 in 2.0 mi Calm Calm - 0.01 in   Overcast
7:51 AM 24.8 °F - 24.8 °F 100% 29.52 in 1.8 mi Calm Calm - 0.01 in   Overcast
7:53 AM 25.0 °F - 24.1 °F 96% 29.61 in 1.5 mi Calm Calm - 0.01 in   Overcast
8:53 AM 26.1 °F - 25.0 °F 96% 29.61 in 2.5 mi Calm Calm - 0.01 in Snow Light Snow
9:01 AM 26.6 °F - 24.8 °F 93% 29.53 in 5.0 mi Calm Calm - 0.00 in   Overcast
9:28 AM 26.6 °F - 24.8 °F 93% 29.54 in 7.0 mi Calm Calm - 0.00 in   Overcast
9:37 AM 26.6 °F - 24.8 °F 93% 29.54 in 7.0 mi Calm Calm - 0.00 in   Overcast
9:53 AM 26.1 °F - 25.0 °F 96% 29.63 in 8.0 mi Calm Calm - 0.00 in   Overcast
10:09 AM 26.6 °F - 26.6 °F 100% 29.55 in 8.0 mi Calm Calm - N/A   Overcast
10:53 AM 28.9 °F - 23.0 °F 78% 29.64 in 10.0 mi Calm Calm - N/A   Overcast
11:53 AM 28.0 °F 24.2 °F 24.1 °F 85% 29.64 in 10.0 mi SSW 3.5 mph - N/A   Overcast
1:53 PM 30.0 °F 23.2 °F 19.9 °F 66% 29.66 in 10.0 mi NW 6.9 mph - N/A   Overcast
2:53 PM 30.0 °F 21.7 °F 19.0 °F 64% 29.69 in 10.0 mi WNW 9.2 mph - N/A   Mostly Cloudy
3:53 PM 27.0 °F 19.5 °F 21.0 °F 78% 29.73 in 10.0 mi South 6.9 mph - N/A   Overcast
4:53 PM 24.1 °F 15.2 °F 19.9 °F 84% 29.78 in 10.0 mi SSW 8.1 mph - N/A   Overcast
5:53 PM 26.1 °F 17.6 °F 19.0 °F 75% 29.81 in 10.0 mi South 8.1 mph - N/A   Overcast
6:53 PM 27.0 °F 20.5 °F 18.0 °F 69% 29.83 in 10.0 mi WNW 5.8 mph - N/A   Overcast
7:53 PM 26.1 °F 19.4 °F 17.1 °F 69% 29.87 in 10.0 mi NW 5.8 mph - N/A   Overcast
8:53 PM 25.0 °F 18.1 °F 17.1 °F 72% 29.90 in 10.0 mi NW 5.8 mph - N/A   Overcast
9:53 PM 25.0 °F - 17.1 °F 72% 29.93 in 10.0 mi Calm Calm - N/A   Overcast
10:53 PM 23.0 °F - 16.0 °F 74% 29.96 in 10.0 mi Calm Calm - N/A   Overcast
11:53 PM 19.9 °F - 15.1 °F 81% 30.01 in 9.0 mi Calm Calm - N/A   Overcast